Fort Collins, CO

5:15 AM MDT on September 28, 2016 (GMT -0600)
Fort Collins-Loveland Municipal

Weather History for KFNL - September, 2011

Change the Weather History Date:

Monday, September 26, 2011

  Actual Average Record
Temperature  
Mean Temperature 71 °F -  
Max Temperature 89 °F - 89 °F (2001)
Min Temperature 53 °F - 33 °F (1996)
Degree Days  
Heating Degree Days 0    
Month to date heating degree days  
Cooling Degree Days 6    
Month to date cooling degree days  
Growing Degree Days 21 (Base 50)    
Moisture  
Dew Point 35 °F    
Average Humidity 33    
Maximum Humidity 72    
Minimum Humidity 13    
Precipitation  
Precipitation 0.00 in - 2.94 in (2002)
Sea Level Pressure  
Sea Level Pressure 30.00 in    
Wind  
Wind Speed 7 mph (North)    
Max Wind Speed 21 mph    
Max Gust Speed 26 mph    
Visibility 10 miles    
Events      
T = Trace of Precipitation, MM = Missing Value Source: NWS Daily Summary

Daily Weather History Graph

Daily Weather History Graph

Search for Another Location

Airport or City:

Trip Planner

Search our weather history database for the weather conditions in past years. The results will help you decide how hot, cold, wet, or windy it might be!

Date:

Astronomy

Sep. 26, 2011 Rise Set
Actual Time 6:51 AM MDT 6:50 PM MDT
Civil Twilight 6:24 AM MDT 7:17 PM MDT
Nautical Twilight 5:52 AM MDT 7:49 PM MDT
Astronomical Twilight 5:20 AM MDT 8:21 PM MDT
Moon 5:54 AM MDT (9/26) 6:07 PM MDT (9/26)
Length of Visible Light 12h 53m
Length of Day
11h 59m
Waning Crescent, 1% of the Moon is Illuminated
Sep 26
Waning Crescent
Sep 27
New
Oct 3
First Quarter
Oct 11
Full
Oct 19
Last Quarter

Hourly Weather History & Observations

Time (MDT) Temp. Dew Point Humidity Pressure Visibility Wind Dir Wind Speed Gust Speed Precip Events Conditions
12:15 AM 62.6 °F 42.8 °F 48% 29.95 in 10.0 mi North 6.9 mph - N/A   Clear
12:35 AM 62.6 °F 42.8 °F 48% 29.95 in 10.0 mi North 8.1 mph - N/A   Clear
12:55 AM 62.6 °F 41.0 °F 45% 29.94 in 10.0 mi North 6.9 mph - N/A   Clear
1:15 AM 57.2 °F 41.0 °F 55% 29.95 in 10.0 mi NW 4.6 mph - N/A   Clear
1:35 AM 60.8 °F 42.8 °F 52% 29.95 in 10.0 mi NNW 4.6 mph - N/A   Clear
1:55 AM 60.8 °F 42.8 °F 52% 29.95 in 10.0 mi Calm Calm - N/A   Clear
2:15 AM 59.0 °F 42.8 °F 55% 29.95 in 10.0 mi NNE 5.8 mph - N/A   Clear
2:35 AM 57.2 °F 42.8 °F 59% 29.95 in 10.0 mi NNE 8.1 mph - N/A   Clear
2:55 AM 57.2 °F 42.8 °F 59% 29.94 in 10.0 mi North 6.9 mph - N/A   Clear
3:15 AM 53.6 °F 42.8 °F 67% 29.94 in 10.0 mi NNE 4.6 mph - N/A   Clear
3:35 AM 53.6 °F 42.8 °F 67% 29.94 in 10.0 mi Calm Calm - N/A   Clear
3:55 AM 57.2 °F 42.8 °F 59% 29.94 in 10.0 mi NNW 3.5 mph - N/A   Clear
4:15 AM 57.2 °F 39.2 °F 51% 29.94 in 10.0 mi North 4.6 mph - N/A   Clear
4:35 AM 53.6 °F 39.2 °F 58% 29.95 in 10.0 mi Calm Calm - N/A   Clear
4:55 AM 55.4 °F 41.0 °F 58% 29.95 in 10.0 mi NW 4.6 mph - N/A   Clear
5:15 AM 55.4 °F 46.4 °F 72% 29.96 in 10.0 mi North 3.5 mph - N/A   Clear
5:35 AM 55.4 °F 35.6 °F 47% 29.96 in 10.0 mi North 5.8 mph - N/A   Clear
5:55 AM 55.4 °F 33.8 °F 44% 29.97 in 10.0 mi North 4.6 mph - N/A   Clear
6:15 AM 55.4 °F 33.8 °F 44% 29.97 in 10.0 mi North 3.5 mph - N/A   Clear
6:35 AM 55.4 °F 33.8 °F 44% 29.98 in 10.0 mi Calm Calm - N/A   Clear
6:55 AM 55.4 °F 35.6 °F 47% 29.99 in 10.0 mi NNW 5.8 mph - N/A   Clear
7:15 AM 55.4 °F 37.4 °F 51% 29.99 in 10.0 mi SW 3.5 mph - N/A   Clear
7:35 AM 57.2 °F 42.8 °F 59% 30.00 in 10.0 mi Calm Calm - N/A   Clear
7:55 AM 57.2 °F 46.4 °F 67% 30.00 in 10.0 mi South 5.8 mph - N/A   Clear
8:15 AM 60.8 °F 41.0 °F 48% 30.01 in 10.0 mi East 3.5 mph - N/A   Clear
8:35 AM 64.4 °F 33.8 °F 32% 30.02 in 10.0 mi NNE 3.5 mph - N/A   Clear
8:55 AM 66.2 °F 33.8 °F 30% 30.03 in 10.0 mi North 4.6 mph - N/A   Clear
9:15 AM 69.8 °F 35.6 °F 28% 30.03 in 10.0 mi NNW 6.9 mph - N/A   Clear
9:35 AM 71.6 °F 37.4 °F 29% 30.03 in 10.0 mi WNW 5.8 mph - N/A   Clear
10:15 AM 80.6 °F 32.0 °F 17% 30.03 in 10.0 mi NW 15.0 mph 20.7 mph N/A   Clear
10:35 AM 82.4 °F 30.2 °F 15% 30.03 in 10.0 mi NNW 17.3 mph - N/A   Clear
10:55 AM 82.4 °F 30.2 °F 15% 30.03 in 10.0 mi NNW 17.3 mph 26.5 mph N/A   Clear
11:15 AM 84.2 °F 30.2 °F 14% 30.03 in 10.0 mi NNW 20.7 mph 25.3 mph N/A   Clear
11:35 AM 84.2 °F 30.2 °F 14% 30.03 in 10.0 mi NNW 18.4 mph 25.3 mph N/A   Clear
11:55 AM 84.2 °F 30.2 °F 14% 30.03 in 10.0 mi NNW 20.7 mph 25.3 mph N/A   Clear
12:15 PM 86.0 °F 30.2 °F 13% 30.02 in 10.0 mi NNW 17.3 mph - N/A   Clear
12:35 PM 86.0 °F 30.2 °F 13% 30.02 in 10.0 mi NNW 13.8 mph - N/A   Clear
1:15 PM 87.8 °F 30.2 °F 13% 30.01 in 10.0 mi North 17.3 mph 21.9 mph N/A   Clear
1:35 PM 87.8 °F 30.2 °F 13% 30.00 in 10.0 mi North 19.6 mph - N/A   Clear
1:55 PM 87.8 °F 30.2 °F 13% 29.99 in 10.0 mi North 13.8 mph 24.2 mph N/A   Clear
2:15 PM 89.6 °F 32.0 °F 13% 29.99 in 10.0 mi North 15.0 mph 24.2 mph N/A   Clear
2:35 PM 84.2 °F 30.2 °F 14% 29.99 in 10.0 mi North 12.7 mph - N/A   Clear
3:15 PM 87.8 °F 30.2 °F 13% 29.99 in 10.0 mi North 15.0 mph - N/A   Clear
3:35 PM 86.0 °F 30.2 °F 13% 29.99 in 10.0 mi North 13.8 mph - N/A   Clear
4:15 PM 84.2 °F 30.2 °F 14% 29.99 in 10.0 mi North 12.7 mph - N/A   Clear
4:35 PM 82.4 °F 30.2 °F 15% 29.99 in 10.0 mi North 11.5 mph - N/A   Clear
4:55 PM 82.4 °F 30.2 °F 15% 29.99 in 10.0 mi North 11.5 mph - N/A   Clear
5:15 PM 82.4 °F 30.2 °F 15% 30.00 in 10.0 mi North 10.4 mph - N/A   Partly Cloudy
5:35 PM 82.4 °F 30.2 °F 15% 30.01 in 10.0 mi North 10.4 mph - N/A   Clear
5:55 PM 80.6 °F 33.8 °F 18% 30.02 in 10.0 mi North 8.1 mph - N/A   Clear
6:15 PM 78.8 °F 33.8 °F 20% 30.03 in 10.0 mi North 8.1 mph - N/A   Clear
6:35 PM 78.8 °F 32.0 °F 18% 30.03 in 10.0 mi NNW 6.9 mph - N/A   Clear
6:55 PM 78.8 °F 32.0 °F 18% 30.05 in 10.0 mi WNW 17.3 mph 25.3 mph N/A   Scattered Clouds
7:15 PM 80.6 °F 30.2 °F 16% 30.05 in 10.0 mi Calm Calm - N/A   Mostly Cloudy
7:35 PM 75.2 °F 32.0 °F 21% 30.06 in 10.0 mi NW 3.5 mph - N/A   Mostly Cloudy
7:55 PM 75.2 °F 32.0 °F 21% 30.08 in 10.0 mi North 9.2 mph - N/A   Partly Cloudy
8:15 PM 75.2 °F 33.8 °F 22% 30.09 in 10.0 mi North 8.1 mph - N/A   Scattered Clouds
8:35 PM 73.4 °F 33.8 °F 23% 30.11 in 10.0 mi North 5.8 mph - N/A   Mostly Cloudy
9:15 PM 73.4 °F 32.0 °F 22% 30.12 in 10.0 mi NNE 6.9 mph - N/A   Mostly Cloudy
9:35 PM 69.8 °F 33.8 °F 27% 30.13 in 10.0 mi North 9.2 mph - N/A   Mostly Cloudy
9:55 PM 69.8 °F 35.6 °F 28% 30.13 in 10.0 mi North 8.1 mph - N/A   Scattered Clouds
10:15 PM 66.2 °F 35.6 °F 32% 30.14 in 10.0 mi NNW 9.2 mph - N/A   Clear
10:35 PM 64.4 °F 35.6 °F 34% 30.15 in 10.0 mi North 9.2 mph - N/A   Clear
10:55 PM 66.2 °F 35.6 °F 32% 30.15 in 10.0 mi North 8.1 mph - N/A   Clear
11:15 PM 64.4 °F 35.6 °F 34% 30.16 in 10.0 mi North 9.2 mph - N/A   Clear
11:35 PM 64.4 °F 35.6 °F 34% 30.17 in 10.0 mi North 8.1 mph - N/A   Clear
11:55 PM 64.4 °F 35.6 °F 34% 30.18 in 10.0 mi North 5.8 mph - N/A   Clear